Location: Newark
(42.9260°N, 89.3850°W)
Time: 03:51:18
(UTC+00:00)

STARLINK 1045 - Pass Details

Date: 11 December 2019
Orbit: 549 x 550 km, 53.0° (Epoch: 26 January)

Event Time Altitude Azimuth Distance (km) Brightness Sun altitude
Exits shadow 11:39:56 36° 277° (W) 896 4.1 -17.3°
Maximum altitude 11:41:18 54° 222° (SW) 689 3.9 -17.1°
Drops below altitude 10° 11:45:25 10° 145° (SE) 1,850 7.1 -16.3°
Sets 11:47:41 0° 141° (SE) 2,741 8.2 -16.0°
